| time (UTC) | temp F | wind direction | speed MPH | gust MPH | rain 1hr in | rain 24hr in | rain mn in | humidity % | barometer mb |
| 20260507181551 | 72 | 70 | 1.0 | 5.0 | 0.00 | 0.02 | 0.01 | 81 | 1015.9 |
| 20260507180052 | 71 | 101 | 1.0 | 6.0 | 0.00 | 0.02 | 0.01 | 82 | 1015.9 |
| 20260507174553 | 69 | 0 | 0.0 | 3.0 | 0.00 | 0.02 | 0.01 | 82 | 1016.2 |
| 20260507173101 | 68 | 0 | 0.0 | 4.0 | 0.00 | 0.02 | 0.01 | 83 | 1016.3 |
| 20260507171558 | 67 | 0 | 0.0 | 4.0 | 0.00 | 0.02 | 0.01 | 83 | 1016.3 |
| 20260507170056 | 67 | 0 | 0.0 | 4.0 | 0.00 | 0.02 | 0.01 | 83 | 1016.2 |
| 20260507164551 | 67 | 26 | 0.0 | 9.0 | 0.01 | 0.03 | 0.01 | 83 | 1016.1 |
| 20260507163049 | 66 | 42 | 1.0 | 7.0 | 0.01 | 0.03 | 0.01 | 84 | 1016.2 |
| 20260507161551 | 65 | 0 | 0.0 | 7.0 | 0.01 | 0.03 | 0.01 | 84 | 1016.3 |
| 20260507160052 | 65 | 0 | 1.0 | 5.0 | 0.01 | 0.03 | 0.01 | 84 | 1016.3 |
| 20260507154555 | 65 | 0 | 1.0 | 5.0 | 0.00 | 0.02 | 0.00 | 84 | 1016.5 |
| 20260507153058 | 64 | 0 | 0.0 | 10.0 | 0.00 | 0.02 | 0.00 | 85 | 1016.5 |
| 20260507151551 | 63 | 0 | 2.0 | 6.0 | 0.00 | 0.02 | 0.00 | 85 | 1016.4 |
| 20260507150055 | 63 | 0 | 0.0 | 4.0 | 0.00 | 0.02 | 0.00 | 85 | 1016.1 |
| 20260507144552 | 63 | 352 | 2.0 | 10.0 | 0.00 | 0.02 | 0.00 | 85 | 1016.0 |
| 20260507143054 | 63 | 0 | 0.0 | 5.0 | 0.00 | 0.02 | 0.00 | 86 | 1016.3 |
| 20260507141550 | 63 | 0 | 0.0 | 5.0 | 0.00 | 0.02 | 0.00 | 85 | 1016.3 |
| 20260507140105 | 64 | 0 | 0.0 | 3.0 | 0.00 | 0.02 | 0.00 | 86 | 1016.4 |
| 20260507134556 | 63 | 53 | 0.0 | 8.0 | 0.00 | 0.02 | 0.00 | 86 | 1016.7 |
| 20260507133054 | 63 | 0 | 0.0 | 4.0 | 0.00 | 0.02 | 0.00 | 86 | 1016.2 |
| 20260507131552 | 63 | 5 | 0.0 | 3.0 | 0.00 | 0.02 | 0.00 | 86 | 1016.3 |
| 20260507130055 | 63 | 0 | 0.0 | 9.0 | 0.00 | 0.02 | 0.00 | 86 | 1015.9 |
| 20260507124559 | 63 | 298 | 0.0 | 2.0 | 0.00 | 0.02 | 0.00 | 86 | 1015.6 |
| 20260507123054 | 63 | 0 | 0.0 | 3.0 | 0.00 | 0.02 | 0.00 | 86 | 1015.5 |
| 20260507122033 | 64 | 360 | 0.0 | 3.0 | 0.00 | 0.02 | 0.00 | 86 | 1015.2 |
| 20260507121555 | 64 | 0 | 0.0 | 3.0 | 0.00 | 0.02 | 0.00 | 86 | 1015.3 |
| 20260507120053 | 64 | 0 | 0.0 | 3.0 | 0.00 | 0.02 | 0.00 | 86 | 1014.8 |
| 20260507114554 | 64 | 75 | 0.0 | 6.0 | 0.00 | 0.02 | 0.00 | 86 | 1014.5 |
| 20260507113054 | 64 | 57 | 0.0 | 4.0 | 0.00 | 0.02 | 0.00 | 85 | 1014.2 |
| 20260507111553 | 65 | 59 | 1.0 | 5.0 | 0.00 | 0.02 | 0.00 | 85 | 1014.4 |
| 20260507110057 | 65 | 0 | 1.0 | 7.0 | 0.00 | 0.02 | 0.00 | 85 | 1014.3 |
| 20260507104555 | 65 | 0 | 2.0 | 5.0 | 0.00 | 0.02 | 0.00 | 85 | 1014.2 |
| 20260507103055 | 65 | 0 | 0.0 | 9.0 | 0.00 | 0.02 | 0.00 | 86 | 1013.9 |
| 20260507101604 | 66 | 0 | 1.0 | 6.0 | 0.00 | 0.02 | 0.00 | 86 | 1013.7 |
| 20260507100053 | 66 | 0 | 2.0 | 7.0 | 0.00 | 0.02 | 0.00 | 86 | 1013.5 |
| 20260507094559 | 67 | 0 | 2.0 | 8.0 | 0.00 | 0.02 | 0.00 | 86 | 1013.4 |
| 20260507093052 | 67 | 78 | 0.0 | 5.0 | 0.00 | 0.02 | 0.00 | 86 | 1013.4 |
| 20260507091603 | 67 | 0 | 0.0 | 4.0 | 0.00 | 0.02 | 0.00 | 86 | 1013.4 |
| 20260507090110 | 68 | 5 | 1.0 | 6.0 | 0.00 | 0.02 | 0.00 | 86 | 1013.4 |
| 20260507084549 | 68 | 352 | 0.0 | 3.0 | 0.00 | 0.02 | 0.00 | 87 | 1013.0 |
| 20260507083100 | 68 | 9 | 0.0 | 3.0 | 0.00 | 0.02 | 0.00 | 87 | 1013.0 |
| 20260507081559 | 69 | 0 | 0.0 | 4.0 | 0.00 | 0.02 | 0.00 | 87 | 1013.2 |
| 20260507080057 | 69 | 0 | 0.0 | 2.0 | 0.00 | 0.02 | 0.00 | 87 | 1013.1 |
| 20260507074558 | 69 | 52 | 0.0 | 3.0 | 0.00 | 0.02 | 0.00 | 87 | 1013.4 |
| 20260507073101 | 69 | 0 | 0.0 | 2.0 | 0.00 | 0.02 | 0.00 | 86 | 1013.4 |
| 20260507071556 | 70 | 0 | 0.0 | 5.0 | 0.00 | 0.02 | 0.00 | 86 | 1013.1 |
| 20260507070134 | 70 | 0 | 0.0 | 3.0 | 0.00 | 0.02 | 0.00 | 86 | 1013.3 |
| 20260507064553 | 71 | 0 | 0.0 | 3.0 | 0.00 | 0.02 | 0.00 | 86 | 1013.3 |
| 20260507063055 | 71 | 0 | 0.0 | 4.0 | 0.00 | 0.02 | 0.00 | 86 | 1013.2 |
| 20260507061549 | 71 | 0 | 0.0 | 2.0 | 0.00 | 0.02 | 0.00 | 86 | 1013.2 |
| 20260507060053 | 71 | 0 | 0.0 | 5.0 | 0.00 | 0.02 | 0.00 | 87 | 1013.1 |
| 20260507054556 | 72 | 0 | 0.0 | 3.0 | 0.00 | 0.02 | 0.00 | 87 | 1012.9 |
| 20260507053055 | 72 | 0 | 0.0 | 0.0 | 0.00 | 0.02 | 0.00 | 88 | 1013.0 |
| 20260507051555 | 72 | 0 | 0.0 | 3.0 | 0.01 | 0.02 | 0.00 | 87 | 1013.0 |
| 20260507050053 | 73 | 0 | 0.0 | 2.0 | 0.01 | 0.02 | 0.00 | 87 | 1012.9 |
| 20260507044610 | 73 | 0 | 1.0 | 6.0 | 0.01 | 0.02 | 0.02 | 87 | 1012.9 |
| 20260507043049 | 74 | 0 | 0.0 | 2.0 | 0.01 | 0.02 | 0.02 | 87 | 1012.9 |
| 20260507041600 | 75 | 0 | 0.0 | 3.0 | 0.00 | 0.01 | 0.01 | 87 | 1012.8 |
| 20260507040055 | 76 | 34 | 0.0 | 2.0 | 0.00 | 0.01 | 0.01 | 87 | 1012.4 |
| 20260507034554 | 77 | 0 | 0.0 | 0.0 | 0.00 | 0.01 | 0.01 | 89 | 1012.0 |
| 20260507033052 | 77 | 0 | 0.0 | 0.0 | 0.00 | 0.01 | 0.01 | 89 | 1011.9 |
| 20260507031551 | 77 | 0 | 0.0 | 1.0 | 0.00 | 0.01 | 0.01 | 89 | 1011.6 |
| 20260507030105 | 77 | 0 | 0.0 | 2.0 | 0.00 | 0.01 | 0.01 | 88 | 1011.2 |
| 20260507024551 | 77 | 0 | 0.0 | 0.0 | 0.00 | 0.01 | 0.01 | 88 | 1011.1 |
| 20260507023052 | 77 | 0 | 0.0 | 0.0 | 0.00 | 0.01 | 0.01 | 88 | 1011.1 |
| 20260507021613 | 78 | 0 | 0.0 | 0.0 | 0.00 | 0.01 | 0.01 | 88 | 1010.9 |
| 20260507014612 | 78 | 0 | 0.0 | 0.0 | 0.00 | 0.01 | 0.01 | 87 | 1010.5 |
| 20260507013056 | 78 | 0 | 0.0 | 1.0 | 0.00 | 0.01 | 0.01 | 87 | 1010.4 |
| 20260507011551 | 78 | 0 | 0.0 | 2.0 | 0.00 | 0.01 | 0.01 | 87 | 1010.3 |
| 20260507010105 | 79 | 0 | 0.0 | 2.0 | 0.00 | 0.01 | 0.01 | 87 | 1009.5 |
| 20260507004553 | 79 | 0 | 0.0 | 0.0 | 0.00 | 0.01 | 0.01 | 87 | 1009.5 |
| 20260507003051 | 79 | 0 | 0.0 | 2.0 | 0.00 | 0.01 | 0.01 | 86 | 1009.4 |
| 20260507001553 | 80 | 0 | 0.0 | 2.0 | 0.00 | 0.01 | 0.01 | 86 | 1009.4 |
| 20260507000056 | 80 | 0 | 0.0 | 4.0 | 0.00 | 0.01 | 0.01 | 85 | 1009.4 |
| 20260506234555 | 80 | 0 | 0.0 | 2.0 | 0.00 | 0.01 | 0.01 | 85 | 1009.4 |
| 20260506233057 | 81 | 193 | 0.0 | 2.0 | 0.00 | 0.01 | 0.01 | 85 | 1009.3 |
| 20260506231554 | 81 | 0 | 0.0 | 4.0 | 0.00 | 0.01 | 0.01 | 85 | 1009.4 |
| 20260506230103 | 81 | 0 | 0.0 | 7.0 | 0.00 | 0.01 | 0.01 | 85 | 1009.3 |
| 20260506224558 | 81 | 172 | 0.0 | 3.0 | 0.00 | 0.01 | 0.01 | 84 | 1009.0 |
| 20260506223052 | 81 | 0 | 0.0 | 6.0 | 0.00 | 0.01 | 0.01 | 84 | 1009.1 |
| 20260506221553 | 82 | 189 | 0.0 | 5.0 | 0.00 | 0.01 | 0.01 | 82 | 1009.2 |
| 20260506220052 | 83 | 0 | 0.0 | 3.0 | 0.00 | 0.01 | 0.01 | 82 | 1009.1 |
| 20260506214550 | 83 | 200 | 0.0 | 2.0 | 0.00 | 0.01 | 0.01 | 83 | 1009.0 |
| 20260506213056 | 83 | 0 | 1.0 | 5.0 | 0.00 | 0.01 | 0.01 | 83 | 1009.1 |
| 20260506211555 | 83 | 0 | 0.0 | 4.0 | 0.00 | 0.01 | 0.01 | 83 | 1009.1 |
| 20260506210054 | 83 | 0 | 0.0 | 3.0 | 0.00 | 0.01 | 0.01 | 83 | 1009.2 |
| 20260506204554 | 83 | 0 | 0.0 | 5.0 | 0.00 | 0.01 | 0.01 | 83 | 1009.4 |
| 20260506203055 | 82 | 175 | 1.0 | 7.0 | 0.00 | 0.01 | 0.01 | 83 | 1009.6 |
| 20260506201607 | 82 | 184 | 1.0 | 6.0 | 0.00 | 0.01 | 0.01 | 84 | 1009.7 |
| 20260506200054 | 82 | 0 | 0.0 | 6.0 | 0.00 | 0.01 | 0.01 | 84 | 1010.1 |
| 20260506194557 | 83 | 0 | 0.0 | 6.0 | 0.00 | 0.01 | 0.01 | 84 | 1010.2 |
| 20260506193058 | 83 | 217 | 0.0 | 8.0 | 0.00 | 0.01 | 0.01 | 83 | 1010.2 |
| 20260506191559 | 82 | 0 | 0.0 | 5.0 | 0.00 | 0.01 | 0.01 | 85 | 1010.2 |
| 20260506190056 | 82 | 0 | 0.0 | 3.0 | 0.00 | 0.01 | 0.01 | 85 | 1010.4 |
| 20260506184558 | 81 | 0 | 0.0 | 6.0 | 0.00 | 0.01 | 0.01 | 85 | 1010.8 |
| 20260506183055 | 81 | 0 | 0.0 | 3.0 | 0.00 | 0.01 | 0.01 | 86 | 1010.9 |